Egegik, AK

3:46 PM AKST on December 16, 2017 (GMT -0900)
Egegik

Weather History for PAII - August, 2014

Change the Weather History Date:

Wednesday, August 20, 2014

  Actual Average (PAKN) Record (PAKN)
Temperature  
Mean Temperature 58 °F -  
Max Temperature 68 °F 60 °F 75 °F (1977)
Min Temperature 48 °F 46 °F 35 °F (1963)
Degree Days  
Heating Degree Days 7    
Growing Degree Days 8 (Base 50)    
Moisture  
Dew Point 52 °F    
Average Humidity 81    
Maximum Humidity 100    
Minimum Humidity 49    
Precipitation  
Precipitation 0.00 in - - ()
Sea Level Pressure  
Sea Level Pressure 30.14 in    
Wind  
Wind Speed 6 mph (NNW)    
Max Wind Speed 13 mph    
Max Gust Speed -    
Visibility 8 miles    
Events      
Averages and records for this station are not official NWS values.
T = Trace of Precipitation, MM = Missing Value Source: NWS Daily Summary

Daily Weather History Graph

Daily Weather History Graph

Search for Another Location

Airport or City:

Trip Planner

Search our weather history database for the weather conditions in past years. The results will help you decide how hot, cold, wet, or windy it might be!

Date:

Astronomy

Aug. 20, 2014 Rise Set
Actual Time 7:03 AM AKDT 10:00 PM AKDT
Civil Twilight 6:17 AM AKDT 10:45 PM AKDT
Nautical Twilight 5:16 AM AKDT 11:46 PM AKDT
Astronomical Twilight 3:42 AM AKDT 1:16 AM AKDT
Moon 2:27 AM AKDT (8/20) 7:17 PM AKDT (8/20)
Length of Visible Light 16h 28m
Length of Day
14h 57m
Waning Crescent, 19% of the Moon is Illuminated
Aug 20
Waning Crescent
Aug 25
New
Sep 2
First Quarter
Sep 8
Full
Sep 15
Last Quarter

Hourly Weather History & Observations

Time (AKDT) Temp. Dew Point Humidity Pressure Visibility Wind Dir Wind Speed Gust Speed Precip Events Conditions
12:16 AM 55.4 °F 53.6 °F 94% 30.08 in 10.0 mi SW 5.8 mph - N/A   Overcast
12:36 AM 53.6 °F 53.6 °F 100% 30.08 in 10.0 mi SW 4.6 mph - N/A   Overcast
12:56 AM 55.4 °F 53.6 °F 94% 30.08 in 10.0 mi SSW 5.8 mph - N/A   Overcast
1:16 AM 53.6 °F 53.6 °F 100% 30.09 in 10.0 mi SSW 6.9 mph - N/A   Overcast
1:36 AM 53.6 °F 51.8 °F 94% 30.09 in 1.5 mi SSW 6.9 mph - N/A   Overcast
1:56 AM 53.6 °F 51.8 °F 94% 30.09 in 0.5 mi SW 6.9 mph - N/A   Overcast
2:16 AM 53.6 °F 51.8 °F 94% 30.09 in 0.8 mi SW 6.9 mph - N/A   Overcast
2:36 AM 53.6 °F 51.8 °F 94% 30.09 in 0.8 mi SSW 4.6 mph - N/A   Overcast
2:56 AM 51.8 °F 50.0 °F 94% 30.10 in 0.5 mi SSW 5.8 mph - N/A   Overcast
3:16 AM 51.8 °F 51.8 °F 100% 30.10 in 1.0 mi SW 5.8 mph - N/A   Overcast
3:36 AM 51.8 °F 51.8 °F 100% 30.10 in 0.5 mi SSW 4.6 mph - N/A   Overcast
3:56 AM 51.8 °F 51.8 °F 100% 30.10 in 0.8 mi SSW 5.8 mph - N/A   Overcast
4:16 AM 51.8 °F 51.8 °F 100% 30.10 in 0.5 mi SSW 4.6 mph - N/A   Overcast
4:36 AM 50.0 °F 50.0 °F 100% 30.11 in 0.8 mi SSW 5.8 mph - N/A   Overcast
4:56 AM 51.8 °F 50.0 °F 94% 30.11 in 0.8 mi SSW 5.8 mph - N/A   Overcast
5:16 AM 51.8 °F 50.0 °F 94% 30.11 in 10.0 mi South 5.8 mph - N/A   Overcast
5:36 AM 51.8 °F 51.8 °F 100% 30.12 in 10.0 mi South 4.6 mph - N/A   Overcast
5:56 AM 51.8 °F 50.0 °F 94% 30.12 in 10.0 mi SSW 5.8 mph - N/A   Mostly Cloudy
6:16 AM 51.8 °F 48.2 °F 88% 30.12 in 8.0 mi SSW 4.6 mph - N/A   Scattered Clouds
6:36 AM 50.0 °F 48.2 °F 94% 30.12 in 0.2 mi South 3.5 mph - N/A   Overcast
6:56 AM 48.2 °F 48.2 °F 100% 30.13 in 0.5 mi Calm Calm - N/A   Overcast
7:16 AM 51.8 °F 48.2 °F 88% 30.13 in 0.2 mi SSW 4.6 mph - N/A   Overcast
7:36 AM 50.0 °F 50.0 °F 100% 30.13 in 0.5 mi Calm Calm - N/A   Overcast
7:56 AM 50.0 °F 50.0 °F 100% 30.13 in 0.2 mi Calm Calm - N/A   Overcast
8:16 AM 51.8 °F 50.0 °F 94% 30.14 in 0.2 mi Calm Calm - N/A   Overcast
8:36 AM 51.8 °F 51.8 °F 100% 30.14 in 0.2 mi Calm Calm - N/A   Overcast
8:56 AM 53.6 °F 51.8 °F 94% 30.15 in 10.0 mi Calm Calm - N/A   Partly Cloudy
9:16 AM 53.6 °F 53.6 °F 100% 30.15 in 10.0 mi NE 4.6 mph - N/A   Clear
9:36 AM 53.6 °F 53.6 °F 100% 30.15 in 10.0 mi NE 5.8 mph - N/A   Clear
9:56 AM 53.6 °F 51.8 °F 94% 30.15 in 10.0 mi NE 4.6 mph - N/A   Clear
10:16 AM 53.6 °F 51.8 °F 94% 30.15 in 10.0 mi NE 4.6 mph - N/A   Scattered Clouds
10:36 AM 55.4 °F 53.6 °F 94% 30.16 in 10.0 mi NE 4.6 mph - N/A   Overcast
10:56 AM 55.4 °F 53.6 °F 94% 30.16 in 10.0 mi NE 5.8 mph - N/A   Overcast
11:16 AM 57.2 °F 53.6 °F 88% 30.16 in 10.0 mi ENE 4.6 mph - N/A   Mostly Cloudy
11:36 AM 57.2 °F 53.6 °F 88% 30.16 in 10.0 mi ENE 4.6 mph - N/A   Clear
11:56 AM 59.0 °F 53.6 °F 82% 30.16 in 10.0 mi ENE 3.5 mph - N/A   Clear
12:16 PM 60.8 °F 53.6 °F 77% 30.16 in 10.0 mi NE 5.8 mph - N/A   Clear
12:36 PM 62.6 °F 53.6 °F 72% 30.16 in 10.0 mi NE 6.9 mph - N/A   Clear
12:56 PM 62.6 °F 51.8 °F 68% 30.16 in 10.0 mi North 8.1 mph - N/A   Partly Cloudy
1:16 PM 64.4 °F 53.6 °F 68% 30.17 in 10.0 mi NNE 4.6 mph - N/A   Partly Cloudy
1:36 PM 64.4 °F 51.8 °F 64% 30.17 in 10.0 mi Calm Calm - N/A   Partly Cloudy
1:56 PM 64.4 °F 51.8 °F 64% 30.17 in 10.0 mi North 3.5 mph - N/A   Partly Cloudy
2:16 PM 64.4 °F 53.6 °F 68% 30.17 in 10.0 mi WNW 6.9 mph - N/A   Clear
2:36 PM 62.6 °F 53.6 °F 72% 30.17 in 10.0 mi WNW 10.4 mph - N/A   Clear
2:56 PM 62.6 °F 53.6 °F 72% 30.17 in 10.0 mi WNW 9.2 mph - N/A   Clear
3:16 PM 62.6 °F 53.6 °F 72% 30.17 in 10.0 mi WNW 11.5 mph - N/A   Mostly Cloudy
3:36 PM 64.4 °F 53.6 °F 68% 30.17 in 10.0 mi West 12.7 mph - N/A   Overcast
3:56 PM 64.4 °F 53.6 °F 68% 30.16 in 10.0 mi West 6.9 mph - N/A   Scattered Clouds
4:16 PM 66.2 °F 51.8 °F 60% 30.16 in 10.0 mi North 8.1 mph - N/A   Clear
4:36 PM 66.2 °F 50.0 °F 56% 30.16 in 10.0 mi NNE 5.8 mph - N/A   Partly Cloudy
4:56 PM 68.0 °F 48.2 °F 49% 30.15 in 10.0 mi North 5.8 mph - N/A   Mostly Cloudy
5:16 PM 68.0 °F 48.2 °F 49% 30.15 in 10.0 mi NNE 4.6 mph - N/A   Mostly Cloudy
5:36 PM 68.0 °F 48.2 °F 49% 30.15 in 10.0 mi NNE 5.8 mph - N/A   Partly Cloudy
5:56 PM 66.2 °F 48.2 °F 52% 30.15 in 10.0 mi North 5.8 mph - N/A   Clear
6:16 PM 68.0 °F 48.2 °F 49% 30.15 in 10.0 mi North 8.1 mph - N/A   Clear
6:36 PM 66.2 °F 48.2 °F 52% 30.15 in 10.0 mi North 6.9 mph - N/A   Clear
6:56 PM 66.2 °F 48.2 °F 52% 30.15 in 10.0 mi North 8.1 mph - N/A   Clear
7:16 PM 66.2 °F 50.0 °F 56% 30.15 in 10.0 mi NNW 9.2 mph - N/A   Clear
7:36 PM 66.2 °F 51.8 °F 60% 30.15 in 10.0 mi NNW 9.2 mph - N/A   Clear
7:56 PM 64.4 °F 51.8 °F 64% 30.15 in 10.0 mi NNW 9.2 mph - N/A   Clear
8:16 PM 64.4 °F 51.8 °F 64% 30.15 in 10.0 mi NNW 6.9 mph - N/A   Clear
8:36 PM 64.4 °F 53.6 °F 68% 30.15 in 10.0 mi NNW 6.9 mph - N/A   Clear
8:56 PM 62.6 °F 53.6 °F 72% 30.15 in 10.0 mi NNW 5.8 mph - N/A   Clear
9:16 PM 60.8 °F 53.6 °F 77% 30.15 in 10.0 mi NNW 5.8 mph - N/A   Clear
9:36 PM 59.0 °F 51.8 °F 77% 30.16 in 10.0 mi North 5.8 mph - N/A   Clear
9:56 PM 57.2 °F 51.8 °F 82% 30.17 in 10.0 mi North 5.8 mph - N/A   Clear
10:16 PM 57.2 °F 51.8 °F 82% 30.17 in 10.0 mi North 6.9 mph - N/A   Clear
10:36 PM 57.2 °F 51.8 °F 82% 30.17 in 10.0 mi North 6.9 mph - N/A   Clear
10:56 PM 57.2 °F 51.8 °F 82% 30.17 in 10.0 mi North 5.8 mph - N/A   Clear
11:16 PM 55.4 °F 51.8 °F 88% 30.17 in 10.0 mi North 6.9 mph - N/A   Clear
11:36 PM 55.4 °F 51.8 °F 88% 30.17 in 10.0 mi North 6.9 mph - N/A   Scattered Clouds
11:56 PM 55.4 °F 51.8 °F 88% 30.18 in 10.0 mi North 5.8 mph - N/A   Mostly Cloudy